AKJ1736 VOBL-VABB

Flight info

Callsign AKJ1736
Flight time N/A
Altitude 36000
Route VAGPU8A VAGPU Q8 AGELA MOLGO2A
Aircraft B38M/M-SDE1FGHILORVWXY/HB1

Departure

Time 2026-05-08 14:40
Airport Kempegowda International Airport Bengaluru (VOBL)

Arrival

Time N/A
Airport Chhatrapati Shivaji Maharaj International Airport (VABB)
Time Latitude Longitude Altitude Speed Heading
2026-05-08 14:02 13.20175 77.70797 3014 ft 0 kts 180°
2026-05-08 14:23 13.20192 77.70797 3014 ft 4 kts 181°
2026-05-08 14:23 13.20219 77.70798 3020 ft 4 kts 182°
2026-05-08 14:23 13.20246 77.70799 3016 ft 4 kts 181°
2026-05-08 14:23 13.20270 77.70799 3020 ft 4 kts 185°
2026-05-08 14:24 13.20287 77.70807 3021 ft 4 kts 255°
2026-05-08 14:24 13.20285 77.70831 3019 ft 4 kts 279°
2026-05-08 14:24 13.20283 77.70842 3021 ft 1 kts 270°
2026-05-08 14:28 13.20284 77.70834 3020 ft 2 kts 272°
2026-05-08 14:29 13.20284 77.70809 3021 ft 5 kts 270°
2026-05-08 14:29 13.20284 77.70769 3014 ft 7 kts 270°
2026-05-08 14:29 13.20285 77.70718 3014 ft 8 kts 271°
2026-05-08 14:29 13.20285 77.70648 3014 ft 12 kts 272°
2026-05-08 14:30 13.20285 77.70540 3014 ft 17 kts 271°
2026-05-08 14:30 13.20290 77.70415 3014 ft 17 kts 291°
2026-05-08 14:30 13.20388 77.70392 3014 ft 15 kts
2026-05-08 14:30 13.20498 77.70392 3014 ft 16 kts 355°
2026-05-08 14:31 13.20534 77.70314 3014 ft 13 kts 269°
2026-05-08 14:31 13.20535 77.70219 3014 ft 14 kts 271°
2026-05-08 14:31 13.20535 77.70116 3014 ft 15 kts 270°
2026-05-08 14:32 13.20537 77.69886 3014 ft 17 kts 270°
2026-05-08 14:32 13.20538 77.69758 3014 ft 18 kts 270°
2026-05-08 14:32 13.20539 77.69623 3014 ft 20 kts 270°
2026-05-08 14:32 13.20541 77.69479 3013 ft 21 kts 270°
2026-05-08 14:33 13.20542 77.69327 3013 ft 22 kts 270°
2026-05-08 14:33 13.20543 77.69169 3013 ft 23 kts 270°
2026-05-08 14:33 13.20544 77.69003 3013 ft 24 kts 270°
2026-05-08 14:33 13.20547 77.68834 3013 ft 24 kts 270°
2026-05-08 14:34 13.20547 77.68701 3014 ft 8 kts 270°
2026-05-08 14:34 13.20552 77.68639 3014 ft 9 kts 293°
2026-05-08 14:34 13.20604 77.68616 3014 ft 0 kts 359°
2026-05-08 14:35 13.20621 77.68616 3014 ft 6 kts 359°
2026-05-08 14:36 13.20688 77.68615 3019 ft 13 kts
2026-05-08 14:36 13.20720 77.68691 3013 ft 9 kts 91°
2026-05-08 14:36 13.20720 77.68693 3013 ft 0 kts 91°
2026-05-08 14:38 13.20720 77.68694 2986 ft 1 kts 91°
2026-05-08 14:39 13.20719 77.68770 3014 ft 34 kts 90°
2026-05-08 14:39 13.20716 77.69244 3014 ft 97 kts 90°
2026-05-08 14:39 13.20707 77.70133 3014 ft 150 kts 92°
2026-05-08 14:39 13.20746 77.71288 3023 ft 168 kts 83°
2026-05-08 14:40 13.20803 77.72593 3323 ft 199 kts 81°
2026-05-08 14:40 13.21164 77.74054 3833 ft 223 kts 54°
2026-05-08 14:40 13.22464 77.74763 4928 ft 197 kts 15°
2026-05-08 14:40 13.23724 77.75323 5603 ft 200 kts 31°
2026-05-08 14:41 13.24836 77.76086 6463 ft 186 kts 33°
2026-05-08 14:41 13.26019 77.76520 7106 ft 188 kts 357°
2026-05-08 14:41 13.27250 77.75984 7000 ft 203 kts 315°